Tracking 19854 objects as of 22-Sep-2019
HD Live streaming from Space Station
objects crossing your sky now

ARIANE 44L R/B

Track ARIANE 44L R/B now!


NORAD ID: 24654
Int'l Code: 1996-063C
Perigee: 355.2 km
Apogee: 34,251.3 km
Inclination: 4.3 °
Period: 604.2 minutes
Semi major axis: 23674 km
RCS: 21.8901 m2 (large)
Launch date: November 13, 1996
Source: France (FR)
Launch site: FRENCH GUIANA (FRGUI)

Note: This is a ROCKET BODY
aabbcc
Your satellite tracking list
Your tracking list is empty




NASA's NSSDC Master Catalog

Two Line Element Set (TLE):
1 24654U 96063C   19264.82924393  .00000242  00000-0  49999-3 0  9998
2 24654   4.3240 335.4091 7158863 225.6190  46.6788  2.38335873193749
Source of the keplerian elements: AFSPC